Погода в Нижней Пыхте

Россия / Удмуртская Республика     57°41′23″N   53°59′33″E
темп.,
°C
ветер,
м/с
пор.,
м/с
влажн.,
%
обл.,
%
осадки,
мм/ч
давл.,
гПа
погр.,
м
17 мая, вт
вт1701:00+8сз2597100 1.3 997201
04:00+8сз2698100 2.4 997270
07:00+8зсз2398100 1.2 997165
10:00+9зюз2696100 2.9 998358
13:00+9юз3695100 1.8 999303
16:00+12з247667 1.9 999724
19:00+11зсз228499 0.3 999113
22:00+7с1195100 0.5 99918
18 мая, ср
ср1801:00+7вюв119672 0.1 99915
04:00+7ююз4895100 0.4 998605
07:00+6ююз3895100 3.6 999677
10:00+8ю2589100 5.9 999522
13:00+10зюз4577100 1.3 999879
16:00+10зсз348098 2.8 999654
19:00+6ссз459399 0.4 1000369
22:00+3ссз4897100 0.5 1001460
19 мая, чт
чт1901:00+3ссз41197100 0.3 1002508
04:00+3сз389375 0.4 1002538
07:00+3зсз478367 0.0 1004501
10:00+6зсз4563100 0.1 10041421
13:00+7з4665100 0.4 10041449
16:00+6зсз4669100 1.1 10051205
19:00+6зсз367588 0.3 1005946
22:00+2з249340 0.3 100667
20 мая, пт
пт2001:00+1з269767 0.0 1006128
04:000з27979 0.0 1006153
07:00+3з36815 0.0 1006417
10:00+7зсз575882 0.2 10061530
13:00+7зсз576182 0.6 10061486
16:00+6сз676298 0.8 10061429
19:00+3сз4892100 0.2 1007566
22:00+1сз3997100 1.1 1007398
21 мая, сб
сб2101:00+1сз3899100 1.8 1005310
04:00+1сз41098100 4.1 1005440
07:00+1сз51198100 1.1 1004512
10:00+2сз4998100 2.1 1004507
13:00+2ссз41099100 1.6 1004506
16:00+2ссз41098100 3.1 1005542
19:00+1ссз4898100 0.8 1006822
22:00+1ссз3897100 1.2 1007886